Weather History for Cincinnati, OH

Change the Weather History Date:

Sunday, October 20, 2013

  Actual Average Record
Temperature  
Mean Temperature 47 °F -  
Max Temperature 61 °F 63 °F 81 °F (1971)
Min Temperature 33 °F 41 °F 25 °F (1972)
Degree Days  
Heating Degree Days 18    
Moisture  
Dew Point 38 °F    
Average Humidity 87    
Maximum Humidity 100    
Minimum Humidity 48    
Precipitation  
Precipitation 0.00 in - - ()
Sea Level Pressure  
Sea Level Pressure 30.04 in    
Wind  
Wind Speed 2 mph (SSW)    
Max Wind Speed 16 mph    
Max Gust Speed 22 mph    
Visibility 6 miles    
Events Fog    
Averages and records for this station are not official NWS values.
T = Trace of Precipitation, MM = Missing Value Source: NWS Daily Summary

Daily Weather History Graph

Daily Weather History Graph

Search for Another Location

Airport:

Trip Planner

Search our weather history database for the weather conditions in past years. The results will help you decide how hot, cold, wet, or windy it might be!

Date:

Astronomy

Oct. 20, 2013 Rise Set
Actual Time 7:52 AM EDT 6:51 PM EDT
Civil Twilight 7:25 AM EDT 7:18 PM EDT
Nautical Twilight 6:54 AM EDT 7:49 PM EDT
Astronomical Twilight 6:23 AM EDT 8:20 PM EDT
Moon 8:00 PM EDT 9:28 AM EDT
Length of Visible Light 11h 53m
Length of Day
10h 58m
Full, 97% of the Moon is Illuminated
Oct 20
Full
Oct 26
Last Quarter
Nov 3
New
Nov 10
First Quarter
Nov 17
Full

Hourly Weather History & Observations

Time (EDT) Temp. Windchill Dew Point Humidity Pressure Visibility Wind Dir Wind Speed Gust Speed Precip Events Conditions
12:07 AM 37.4 °F - 37.4 °F 100% 30.03 in 1.8 mi Calm Calm - N/A   Clear
12:25 AM 37.4 °F - 35.6 °F 93% 30.03 in 0.5 mi Calm Calm - N/A Fog Fog
12:33 AM 37.4 °F - 35.6 °F 93% 30.03 in 2.5 mi Calm Calm - N/A   Clear
12:42 AM 35.6 °F - 35.6 °F 100% 30.03 in 1.0 mi Calm Calm - N/A   Clear
12:53 AM 37.0 °F - 36.0 °F 96% 30.04 in 2.5 mi Calm Calm - N/A   Clear
1:04 AM 37.4 °F - 37.4 °F 100% 30.03 in 4.0 mi Calm Calm - N/A   Clear
1:53 AM 37.0 °F - 36.0 °F 96% 30.04 in 6.0 mi Calm Calm - N/A   Clear
2:05 AM 35.6 °F - 35.6 °F 100% 30.03 in 1.5 mi Calm Calm - N/A   Clear
2:18 AM 37.4 °F - 35.6 °F 93% 30.04 in 3.0 mi Calm Calm - N/A   Clear
2:53 AM 37.9 °F - 37.0 °F 97% 30.04 in 6.0 mi Calm Calm - N/A   Clear
3:06 AM 35.6 °F - 35.6 °F 100% 30.03 in 1.8 mi Calm Calm - N/A   Clear
3:21 AM 37.4 °F - 37.4 °F 100% 30.03 in 2.5 mi Calm Calm - N/A   Clear
3:28 AM 37.4 °F - 37.4 °F 100% 30.03 in 9.0 mi Calm Calm - N/A   Clear
3:53 AM 37.9 °F - 37.0 °F 97% 30.03 in 10.0 mi Calm Calm - N/A   Clear
4:13 AM 37.4 °F - 35.6 °F 93% 30.02 in 1.2 mi Calm Calm - N/A   Clear
4:19 AM 37.4 °F - 37.4 °F 100% 30.03 in 0.2 mi Calm Calm - N/A Fog Fog
4:26 AM 37.4 °F - 37.4 °F 100% 30.02 in 0.2 mi Calm Calm - N/A Fog Fog
4:35 AM 35.6 °F - 35.6 °F 100% 30.03 in 0.2 mi Calm Calm - N/A Fog Fog
4:45 AM 35.6 °F - 35.6 °F 100% 30.02 in 0.5 mi Calm Calm - N/A Fog Fog
4:53 AM 35.1 °F - 35.1 °F 100% 30.03 in 0.8 mi Calm Calm - N/A   Clear
5:09 AM 35.6 °F - 35.6 °F 100% 30.03 in 0.2 mi Calm Calm - N/A Fog Fog
5:18 AM 33.8 °F - 33.8 °F 100% 30.03 in 0.5 mi Calm Calm - N/A Fog Fog
5:37 AM 35.6 °F - 35.6 °F 100% 30.03 in 2.0 mi Calm Calm - N/A   Clear
5:44 AM 37.4 °F - 37.4 °F 100% 30.03 in 8.0 mi Calm Calm - N/A   Clear
5:53 AM 37.9 °F - 37.0 °F 97% 30.04 in 8.0 mi Calm Calm - N/A   Clear
6:53 AM 37.0 °F - 36.0 °F 96% 30.05 in 10.0 mi Calm Calm - N/A   Clear
7:53 AM 36.0 °F - 35.1 °F 97% 30.06 in 10.0 mi Calm Calm - N/A   Clear
8:53 AM 37.0 °F - 36.0 °F 96% 30.08 in 9.0 mi Calm Calm - N/A   Clear
9:53 AM 46.0 °F 41.0 °F 39.9 °F 79% 30.07 in 10.0 mi South 10.4 mph - N/A   Scattered Clouds
10:53 AM 52.0 °F - 42.1 °F 69% 30.07 in 10.0 mi SSW 9.2 mph 18.4 mph N/A   Clear
11:53 AM 55.0 °F - 42.1 °F 62% 30.07 in 10.0 mi SSW 12.7 mph 21.9 mph N/A   Clear
12:53 PM 57.0 °F - 42.1 °F 57% 30.06 in 10.0 mi South 12.7 mph - N/A   Clear
1:53 PM 59.0 °F - 41.0 °F 51% 30.04 in 10.0 mi SSW 13.8 mph - N/A   Clear
2:53 PM 60.1 °F - 43.0 °F 53% 30.02 in 10.0 mi SSW 15.0 mph - N/A   Clear
3:53 PM 61.0 °F - 42.1 °F 50% 30.01 in 10.0 mi SSW 16.1 mph - N/A   Clear
4:53 PM 61.0 °F - 41.0 °F 48% 30.02 in 10.0 mi SSW 10.4 mph - N/A   Clear
5:53 PM 59.0 °F - 41.0 °F 51% 30.02 in 10.0 mi South 12.7 mph - N/A   Clear
6:53 PM 52.0 °F - 41.0 °F 66% 30.02 in 10.0 mi South 6.9 mph - N/A   Clear
7:53 PM 48.9 °F - 41.0 °F 74% 30.04 in 10.0 mi SW 4.6 mph - N/A   Clear
8:53 PM 46.9 °F - 42.1 °F 83% 30.04 in 10.0 mi Calm Calm - N/A   Clear
9:53 PM 44.1 °F - 42.1 °F 93% 30.04 in 10.0 mi Calm Calm - N/A   Clear
10:53 PM 45.0 °F - 39.9 °F 82% 30.04 in 10.0 mi Calm Calm - N/A   Clear
11:53 PM 43.0 °F - 39.9 °F 89% 30.04 in 10.0 mi Calm Calm - N/A   Clear